Location: Unspecified
(0.0000°N, 0.0000°E)
Time: 19:28:13
(UTC+00:00)

COSMOS 2401 - Pass Details

Date: 27 February 2021
Orbit: 1467 x 1500 km, 82.5° (Epoch: 12 April)

Event Time Altitude Azimuth Distance (km) Brightness Sun altitude
Rises 19:05:13 0° 164° (SSE) 4,578 9.9 -13.0°
Reaches altitude 10° 19:08:28 10° 155° (SSE) 3,597 9.3 -13.8°
Maximum altitude 19:16:00 34° 93° (E) 2,232 7.8 -15.7°
Drops below altitude 10° 19:23:31 10° 32° (NNE) 3,599 9.1 -17.5°
Sets 19:26:43 0° 23° (NNE) 4,581 9.7 -18.3°
